Location: Big Spring State Park
(32.2296°N, 101.4897°W)
Time: 17:35:56
(UTC-06:00)

Envisat - Visible Passes

Search period start: 22 January 2018 00:00
Search period end: 01 February 2018 00:00
Orbit: 764 x 766 km, 98.2° (Epoch: 22 January)

Date Brightness Start Highest point End Pass type
(mag) Time Alt. Az. Time Alt. Az. Time Alt. Az.
22 Jan 5.3 19:54:08 10° N 19:54:08 10° N 19:54:12 10° N visible
24 Jan 5.1 20:19:27 14° N 20:19:27 14° N 20:20:10 10° N visible
25 Jan 4.9 19:42:01 14° NNE 19:42:01 14° NNE 19:42:48 10° NNE visible
26 Jan 5.2 20:44:46 16° NNW 20:44:46 16° NNW 20:45:46 10° NNW visible
27 Jan 4.6 20:07:18 20° N 20:07:18 20° N 20:08:55 10° N visible
28 Jan 4.7 19:29:51 15° NE 19:29:51 15° NE 19:31:16 10° NNE visible
28 Jan 5.4 21:10:02 15° NW 21:10:02 15° NW 21:11:01 10° NNW visible
29 Jan 4.5 20:32:33 26° NNW 20:32:33 26° NNW 20:34:40 10° NNW visible
30 Jan 4.2 19:55:04 26° NNE 19:55:04 26° NNE 19:57:38 10° N visible
30 Jan 5.8 21:35:15 12° NW 21:35:15 12° NW 21:35:43 10° NW visible
31 Jan 4.6 19:17:35 15° NE 19:17:35 15° NE 19:19:35 10° NNE visible
31 Jan 4.7 20:57:47 26° NW 20:57:47 26° NW 21:00:05 10° NNW visible
